Date,TemperatureHighF,TemperatureAvgF,TemperatureLowF,DewpointHighF,DewpointAvgF,DewpointLowF,HumidityHigh,HumidityAvg,HumidityLow,PressureMaxIn,PressureMinIn,WindSpeedMaxMPH,WindSpeedAvgMPH,GustSpeedMaxMPH,PrecipitationSumIn
2013-1-1,62.9,50.0,41.7,41.0,38.1,31.0,90,68,31,30.21,30.06,3,0,6,0.00
2013-1-2,70.8,52.1,38.5,39.0,31.0,11.0,82,54,10,30.11,30.00,5,1,8,0.00
2013-1-3,72.7,52.1,36.6,42.0,32.7,7.0,87,58,12,30.14,30.03,5,1,8,0.00
2013-1-4,68.3,50.9,38.0,43.0,31.0,7.0,84,56,9,30.24,30.14,6,1,7,0.00
2013-1-5,67.1,50.2,36.8,42.0,35.3,15.0,87,63,14,30.26,30.14,7,0,7,0.00
2013-1-6,59.5,52.3,46.3,50.0,45.5,41.0,91,78,54,30.17,29.99,11,1,15,0.07
2013-1-7,67.5,52.7,39.7,47.0,39.6,29.0,92,67,25,30.07,29.94,10,1,12,0.00
2013-1-8,68.0,52.8,39.9,55.0,46.0,37.0,91,79,45,30.08,29.99,6,1,6,0.01
2013-1-9,69.0,54.6,43.9,54.0,48.6,42.0,93,81,52,30.10,29.99,6,1,8,0.01
2013-1-10,60.8,54.6,46.2,51.0,37.9,22.0,89,57,23,30.07,29.89,15,4,22,0.01
2013-1-11,57.8,50.9,43.4,32.0,23.1,18.0,48,35,22,30.16,30.03,14,4,24,0.00
2013-1-12,57.4,47.6,36.3,34.0,27.6,13.0,81,49,18,30.13,30.04,8,2,12,0.00
2013-1-13,58.8,45.4,33.1,33.0,27.4,12.0,85,56,16,30.14,30.02,9,1,11,0.00
2013-1-14,57.6,48.6,39.0,31.0,10.6,-12.0,64,25,6,30.31,30.10,13,2,13,0.00
2013-1-15,62.6,46.8,32.7,37.0,25.3,9.0,80,51,13,30.43,30.29,10,1,11,0.00
2013-1-16,72.3,51.5,36.1,42.0,34.5,23.0,87,60,16,30.32,30.09,6,1,9,0.00
2013-1-17,81.3,59.5,39.7,38.0,23.0,-9.0,80,38,3,30.13,30.00,13,2,14,0.00
2013-1-18,82.4,61.2,45.9,38.0,24.8,3.0,66,32,5,30.10,30.00,5,1,14,0.00
2013-1-19,81.6,60.1,45.6,38.0,25.5,7.0,74,35,6,30.14,30.03,5,0,7,0.00
2013-1-20,84.0,61.4,44.4,36.0,20.6,-15.0,60,30,2,30.10,29.95,4,1,9,0.00
2013-1-21,83.9,60.2,43.2,35.0,21.2,-99.9,67,33,2,30.05,29.95,6,1,9,0.00
2013-1-22,82.8,59.2,39.9,34.0,21.2,-28.0,71,36,1,30.06,29.96,6,0,9,0.00
2013-1-23,75.8,62.6,51.5,54.0,38.4,29.0,82,45,19,30.11,29.97,6,1,11,0.01
2013-1-24,68.5,60.6,55.8,57.0,54.0,50.0,90,80,61,30.17,30.06,9,2,11,0.87
2013-1-25,69.0,63.4,60.5,60.0,58.4,57.0,89,84,68,30.07,29.91,5,1,8,0.18
2013-1-26,68.0,61.3,56.7,62.0,57.7,54.0,92,88,73,29.97,29.86,7,1,9,0.05
2013-1-27,63.8,57.5,48.4,56.0,48.4,39.0,91,73,51,30.00,29.93,9,2,11,0.07
2013-1-28,63.6,53.2,41.9,41.0,32.4,24.0,76,48,23,30.15,29.99,12,3,16,0.00
2013-1-29,61.2,51.0,40.4,45.0,39.0,31.0,86,65,35,30.20,30.12,8,1,11,0.00
2013-1-30,70.0,55.1,41.6,45.0,41.5,38.0,90,65,31,30.31,30.17,8,1,9,0.00
2013-1-31,80.7,58.8,43.7,47.0,42.6,33.0,88,61,18,30.21,30.05,6,1,9,0.00
2013-2-1,73.8,59.9,46.3,51.0,45.7,38.0,88,64,28,30.13,30.06,5,1,12,0.00
2013-2-2,79.4,63.8,53.4,55.0,48.7,39.0,85,62,24,30.15,30.05,4,0,9,0.00
2013-2-3,76.7,63.0,53.9,56.0,52.0,44.0,89,70,32,30.10,29.96,6,1,11,0.00
2013-2-4,66.5,57.8,51.0,55.0,52.5,48.0,91,83,65,30.07,29.95,5,1,9,0.00
2013-2-5,60.1,56.8,54.9,52.0,50.3,49.0,84,79,72,30.07,29.96,5,1,7,0.00
2013-2-6,64.8,57.7,48.8,50.0,48.8,45.0,88,73,56,30.08,29.97,6,1,10,0.00
2013-2-7,63.6,54.1,43.8,51.0,46.1,41.0,92,75,61,30.11,29.96,8,1,11,0.00
2013-2-8,56.3,51.6,43.0,47.0,42.2,38.0,88,71,58,29.97,29.86,15,4,20,0.19
2013-2-9,60.1,48.5,37.0,42.0,39.5,35.0,92,73,44,30.07,29.91,6,1,12,0.01
2013-2-10,58.9,50.3,39.3,45.0,41.7,36.0,90,73,51,30.08,29.98,7,1,8,0.00
2013-2-11,64.0,52.2,40.8,45.0,40.3,32.0,90,67,30,30.20,30.03,9,2,14,0.00
2013-2-12,64.6,51.4,38.2,46.0,38.8,27.0,88,65,25,30.32,30.20,5,1,10,0.00
2013-2-13,67.8,53.4,39.3,46.0,40.3,31.0,89,66,26,30.23,30.10,7,1,9,0.00
2013-2-14,76.8,56.0,41.2,51.0,44.5,38.0,90,69,29,30.18,30.01,8,1,11,0.00
2013-2-15,84.1,63.3,46.2,46.0,31.5,5.0,86,43,5,30.14,30.07,8,1,12,0.00
2013-2-16,83.6,65.4,48.6,35.0,19.9,-14.0,53,25,2,30.11,29.93,8,1,12,0.00
2013-2-17,66.0,55.4,44.5,53.0,46.7,35.0,90,73,53,30.00,29.90,8,2,12,0.00
2013-2-18,63.2,57.6,55.1,49.0,46.7,44.0,75,68,55,30.04,29.93,8,2,10,0.00
2013-2-19,60.1,54.9,48.4,47.0,42.6,39.0,87,64,49,29.96,29.69,11,4,14,0.22
2013-2-20,61.0,53.1,44.0,45.0,33.2,26.0,69,48,32,29.96,29.68,17,5,22,0.00
2013-2-21,65.1,53.2,42.5,44.0,40.4,34.0,82,64,33,30.06,29.93,9,2,14,0.00
2013-2-22,64.7,52.5,39.4,49.0,43.0,36.0,88,72,48,30.17,30.06,6,1,12,0.00
2013-2-23,65.0,53.7,40.9,49.0,44.0,38.0,89,72,42,30.13,29.89,9,1,14,0.00
2013-2-24,71.1,56.9,43.4,46.0,25.9,-4.0,90,46,5,30.16,29.96,8,2,13,0.01
2013-2-25,68.8,54.6,39.2,45.0,35.1,20.0,79,53,16,30.19,30.04,7,1,12,0.00
2013-2-26,71.6,55.2,40.0,49.0,41.7,30.0,88,64,21,30.07,29.95,9,1,10,0.00
2013-2-27,77.7,60.9,44.3,42.0,24.1,-6.0,80,36,4,30.22,30.08,8,2,11,0.00
2013-2-28,82.0,61.8,43.7,40.0,23.5,-15.0,70,35,2,30.27,30.19,9,1,14,0.00
2013-3-1,89.2,66.8,46.8,41.0,26.4,-3.0,75,34,3,30.26,30.09,9,1,14,0.00
2013-3-2,83.3,66.5,49.1,49.0,32.7,17.0,72,37,9,30.16,30.03,10,2,11,0.00
2013-3-3,69.7,60.1,54.5,54.0,51.8,46.0,87,75,43,30.07,29.95,8,2,13,0.00
2013-3-4,67.4,59.7,53.1,53.0,51.0,49.0,87,74,56,30.07,29.99,10,2,11,0.00
2013-3-5,65.1,58.1,52.1,52.0,50.3,47.0,88,76,61,30.10,30.01,9,1,10,0.00
2013-3-6,64.6,58.2,48.6,50.0,44.9,41.0,81,62,44,30.13,29.99,8,2,13,0.00
2013-3-7,62.6,58.1,55.1,52.0,50.0,47.0,85,75,61,29.99,29.82,11,2,13,0.00
2013-3-8,59.6,54.5,48.6,49.0,45.5,40.0,89,73,48,29.99,29.77,10,3,15,0.94
2013-3-9,65.3,56.6,47.3,50.0,45.3,36.0,87,68,36,30.18,29.98,10,2,11,0.00
2013-3-10,75.4,59.7,44.4,50.0,42.0,29.0,89,59,20,30.23,30.11,11,2,12,0.00
2013-3-11,73.9,59.7,44.6,51.0,45.5,39.0,88,63,31,30.15,30.00,6,1,9,0.00
2013-3-12,79.1,60.5,46.6,54.0,48.8,42.0,92,70,28,30.05,29.96,6,1,8,0.00
2013-3-13,81.2,62.0,48.5,56.0,50.2,42.0,91,69,25,30.08,29.98,6,1,10,0.00
2013-3-14,79.3,61.6,53.1,59.0,51.9,48.0,92,74,39,30.06,29.97,6,1,10,0.00
2013-3-15,66.3,59.4,54.8,56.0,53.6,52.0,91,81,65,30.01,29.91,5,2,10,0.00
2013-3-16,65.4,58.1,53.6,54.0,51.6,50.0,91,79,63,29.95,29.86,8,2,10,0.00
2013-3-17,67.7,60.2,55.0,53.0,51.6,50.0,85,74,56,29.98,29.91,7,2,10,0.00
2013-3-18,66.6,60.4,55.2,53.0,51.1,49.0,82,72,58,30.05,29.95,10,2,10,0.00
2013-3-19,67.7,59.0,51.6,54.0,51.7,48.0,89,77,62,30.09,30.01,9,1,10,0.00
2013-3-20,73.0,61.1,52.5,56.0,51.6,48.0,90,73,45,30.06,29.92,7,1,12,0.00
2013-3-21,70.8,61.9,54.5,56.0,53.0,50.0,89,74,49,29.92,29.77,8,2,10,0.00
2013-3-22,70.4,61.2,54.1,55.0,52.6,47.0,89,75,43,29.88,29.78,7,2,11,0.00
2013-3-23,69.8,62.0,55.1,54.0,52.5,50.0,86,72,56,29.98,29.88,10,2,11,0.00
2013-3-24,74.6,63.3,55.3,55.0,52.9,49.0,88,71,47,29.99,29.86,11,2,11,0.00
2013-3-25,73.8,61.2,54.5,57.0,53.9,50.0,91,78,47,29.95,29.85,7,1,8,0.00
2013-3-26,69.5,61.6,55.7,55.0,53.3,52.0,90,75,58,29.94,29.86,8,1,11,0.00
2013-3-27,67.8,61.4,56.1,54.0,52.1,51.0,84,72,58,30.01,29.90,9,1,12,0.00
2013-3-28,73.4,62.7,54.4,56.0,53.5,50.0,88,73,51,30.04,29.97,8,2,12,0.00
2013-3-29,73.5,62.1,55.6,57.0,54.8,52.0,88,78,54,30.08,30.00,9,2,11,0.00
2013-3-30,71.1,62.1,57.5,57.0,53.8,49.0,86,75,54,30.10,30.02,7,2,11,0.00
2013-3-31,70.3,63.0,57.1,58.0,55.0,53.0,86,76,61,30.10,30.02,11,3,14,0.00
2013-4-1,69.0,61.9,55.8,54.0,51.8,49.0,83,70,52,30.14,30.04,13,3,19,0.00
2013-4-2,70.2,62.3,56.1,54.0,52.7,51.0,84,72,52,30.07,29.96,6,2,11,0.00
2013-4-3,77.0,63.8,55.4,57.0,54.6,52.0,90,74,43,30.05,29.95,6,2,10,0.00
2013-4-4,73.4,64.7,59.7,56.0,54.9,54.0,84,71,52,30.08,29.98,11,3,14,0.00
2013-4-5,69.2,62.9,59.9,56.0,55.6,55.0,86,77,63,30.06,29.97,8,2,14,0.00
2013-4-6,71.1,64.4,58.7,57.0,55.0,53.0,86,72,57,30.05,29.93,10,2,14,0.00
2013-4-7,70.6,64.3,59.9,56.0,55.2,54.0,85,73,57,29.93,29.78,9,2,12,0.00
2013-4-8,68.1,63.0,58.0,56.0,46.4,37.0,86,57,36,29.79,29.63,18,6,23,0.00
2013-4-9,76.5,64.2,52.3,50.0,36.8,15.0,76,41,10,29.97,29.79,15,3,19,0.00
2013-4-10,82.1,65.6,49.3,52.0,40.4,8.0,86,51,6,30.06,29.94,10,2,13,0.00
2013-4-11,72.2,62.0,51.9,56.0,51.3,46.0,84,69,42,29.97,29.76,11,2,14,0.00
2013-4-12,72.9,63.4,56.9,54.0,52.6,51.0,85,69,51,29.86,29.75,8,2,10,0.00
2013-4-13,63.8,60.1,57.2,56.0,53.8,51.0,89,80,73,29.89,29.82,5,2,9,0.00
2013-4-14,65.7,60.2,56.4,54.0,51.7,50.0,82,74,64,29.86,29.80,8,2,11,0.00
2013-4-15,66.5,61.0,58.4,54.0,51.6,47.0,85,72,61,29.87,29.81,9,3,14,0.02
2013-4-16,67.2,59.8,50.7,50.0,42.4,22.0,78,55,21,29.95,29.84,18,4,23,0.00
2013-4-17,75.4,65.0,55.3,44.0,24.8,5.0,67,25,7,30.09,29.96,14,4,21,0.00
2013-4-18,81.7,65.5,48.5,44.0,21.8,-29.0,77,32,1,30.16,30.07,12,3,18,0.00
2013-4-19,87.7,68.3,48.3,50.0,27.5,-13.0,74,34,2,30.12,29.93,13,2,17,0.00
2013-4-20,81.3,67.4,55.5,57.0,51.6,37.0,89,62,21,29.96,29.84,9,2,11,0.00
2013-4-21,74.4,63.9,58.0,59.0,56.0,51.0,91,77,44,29.98,29.91,7,2,11,0.00
2013-4-22,70.1,63.0,58.9,55.0,53.4,52.0,82,72,56,29.98,29.87,8,2,12,0.00
2013-4-23,71.9,63.6,59.3,55.0,52.1,50.0,79,67,52,29.95,29.82,8,2,11,0.00
2013-4-24,65.7,62.1,60.2,55.0,53.3,49.0,81,73,56,29.95,29.87,6,2,10,0.01
2013-4-25,73.3,65.4,59.8,55.0,51.7,46.0,81,63,39,30.08,29.93,9,2,13,0.00
2013-4-26,78.3,65.5,51.9,55.0,52.0,48.0,87,64,37,30.12,30.06,10,2,13,0.00
2013-4-27,78.0,65.1,53.8,58.0,54.9,51.0,90,71,46,30.12,29.96,7,2,11,0.00
2013-4-28,76.6,65.5,59.9,59.0,56.3,55.0,86,73,52,29.99,29.82,10,2,10,0.00
2013-4-29,69.3,63.0,59.7,57.0,55.6,54.0,87,77,61,29.88,29.75,9,2,12,0.00
2013-4-30,67.3,62.9,60.3,56.0,54.2,53.0,79,73,65,29.86,29.80,8,2,11,0.00
2013-5-1,76.2,66.9,61.6,57.0,55.5,54.0,80,68,50,30.06,29.87,8,2,12,0.00
2013-5-2,94.3,72.4,55.3,57.0,41.2,-99.9,90,52,3,30.08,29.94,11,2,18,0.00
2013-5-3,94.9,75.2,56.9,59.0,28.8,-99.9,82,36,1,29.97,29.74,11,2,14,0.00
2013-5-4,70.6,65.2,60.7,59.0,56.3,52.0,86,74,60,29.82,29.72,10,3,16,0.00
2013-5-5,68.2,63.5,60.0,56.0,53.2,50.0,86,69,54,29.91,29.79,10,4,17,0.02
2013-5-6,70.9,63.7,58.8,60.0,56.7,53.0,91,79,55,29.98,29.87,11,2,14,0.54
2013-5-7,72.4,64.7,57.4,58.0,53.3,46.0,91,69,43,30.04,29.95,9,2,14,0.22
2013-5-8,74.4,65.7,57.1,56.0,52.1,47.0,87,63,40,30.06,30.03,8,2,15,0.00
2013-5-9,71.6,64.8,56.0,58.0,55.3,52.0,88,72,54,30.07,29.98,8,2,13,0.01
2013-5-10,79.7,68.0,58.2,60.0,57.8,55.0,91,71,50,30.06,29.96,9,2,11,0.00
2013-5-11,81.9,69.6,61.3,63.0,60.2,58.0,89,73,51,30.04,29.94,7,2,9,0.00
2013-5-12,89.7,73.3,61.6,64.0,60.4,54.0,91,67,33,30.02,29.86,9,2,12,0.00
2013-5-13,98.4,79.1,63.9,65.0,56.2,44.0,88,52,18,29.92,29.81,15,2,18,0.00
2013-5-14,81.0,70.5,60.9,59.0,54.3,47.0,79,58,32,29.96,29.86,9,2,15,0.00
2013-5-15,72.6,66.1,60.5,58.0,56.0,53.0,84,71,57,30.01,29.91,9,2,11,0.00
2013-5-16,74.3,66.5,62.0,58.0,55.8,54.0,82,69,55,29.95,29.86,9,2,12,0.00
2013-5-17,74.0,67.4,62.3,59.0,57.0,55.0,81,70,57,29.96,29.87,12,2,15,0.00
2013-5-18,75.6,67.4,59.7,57.0,56.2,54.0,86,69,49,30.01,29.93,9,2,11,0.00
2013-5-19,75.0,67.7,60.2,59.0,57.1,55.0,86,70,55,29.95,29.84,8,2,12,0.00
2013-5-20,79.5,69.1,59.8,63.0,59.9,57.0,90,74,53,29.91,29.84,8,2,11,0.00
2013-5-21,75.7,68.9,64.5,61.0,59.9,59.0,83,74,60,29.91,29.79,10,2,12,0.00
2013-5-22,75.2,68.3,64.3,59.0,56.9,55.0,81,68,53,29.82,29.74,9,2,11,0.00
2013-5-23,73.4,66.2,59.2,56.0,54.0,50.0,79,66,51,29.90,29.79,7,2,14,0.00
2013-5-24,72.1,65.4,57.6,56.0,54.1,50.0,82,68,53,29.96,29.88,10,2,14,0.00
2013-5-25,74.6,66.0,59.9,56.0,53.9,52.0,82,66,48,30.00,29.93,8,2,13,0.00
2013-5-26,72.4,65.9,59.2,57.0,55.4,54.0,84,70,54,30.02,29.95,11,2,13,0.00
2013-5-27,76.5,68.2,61.5,59.0,57.0,55.0,83,68,52,29.97,29.82,9,2,12,0.00
2013-5-28,79.3,69.5,63.1,62.0,59.2,56.0,83,71,45,29.85,29.70,10,3,15,0.00
2013-5-29,80.6,70.3,64.0,63.0,60.5,58.0,84,72,50,29.78,29.68,8,2,12,0.00
2013-5-30,75.9,68.7,61.4,62.0,60.2,58.0,88,75,58,29.85,29.73,9,2,11,0.00
2013-5-31,81.7,70.3,64.6,63.0,59.7,58.0,81,70,51,29.88,29.77,8,2,10,0.00
2013-6-1,82.5,71.1,65.5,66.0,62.0,60.0,83,74,56,29.82,29.72,9,2,14,0.00
2013-6-2,70.7,67.2,65.1,61.0,59.4,57.0,82,76,68,29.81,29.74,7,2,11,0.00
2013-6-3,73.7,67.8,64.8,60.0,58.2,57.0,78,71,61,29.86,29.76,10,2,11,0.00
2013-6-4,75.4,67.8,64.0,59.0,57.6,57.0,80,71,54,29.93,29.85,10,2,12,0.00
2013-6-5,76.1,68.2,63.1,58.0,57.1,55.0,80,68,51,29.97,29.88,11,3,14,0.00
2013-6-6,75.9,66.3,62.3,60.0,57.7,56.0,82,74,57,29.91,29.84,8,2,11,0.00
2013-6-7,73.7,66.6,63.2,60.0,57.9,56.0,81,74,62,29.88,29.75,7,2,13,0.00
2013-6-8,71.9,65.7,63.4,60.0,58.3,57.0,83,77,66,29.87,29.76,7,2,12,0.00
2013-6-9,71.6,65.3,60.6,61.0,58.0,56.0,84,77,65,29.90,29.84,6,1,10,0.00
2013-6-10,79.6,69.2,60.8,59.0,57.3,56.0,84,67,45,29.92,29.86,7,2,13,0.00
2013-6-11,82.3,71.3,62.3,63.0,59.8,57.0,85,69,51,29.91,29.84,7,2,11,0.00
2013-6-12,72.1,67.4,65.2,62.0,59.9,58.0,84,77,66,30.00,29.89,7,2,10,0.00
2013-6-13,78.0,69.3,62.0,60.0,58.6,57.0,84,70,53,29.98,29.86,8,2,11,0.00
2013-6-14,72.6,66.7,62.3,60.0,58.1,56.0,86,74,61,29.89,29.82,10,2,12,0.00
2013-6-15,76.4,67.6,62.4,58.0,56.7,56.0,82,69,53,29.94,29.86,9,2,11,0.00
2013-6-16,79.7,69.2,61.5,60.0,57.8,57.0,84,68,48,30.00,29.91,8,2,11,0.00
2013-6-17,78.5,68.9,59.4,61.0,59.0,56.0,89,72,49,29.95,29.84,9,1,11,0.00
2013-6-18,79.5,69.7,63.1,62.0,59.8,57.0,88,72,48,29.89,29.80,8,2,11,0.00
2013-6-19,82.0,70.5,62.4,61.0,58.6,53.0,86,68,37,29.84,29.75,8,2,11,0.00
2013-6-20,81.0,70.3,60.4,62.0,58.8,50.0,90,69,34,29.83,29.76,6,2,10,0.00
2013-6-21,77.6,69.7,61.9,62.0,60.0,58.0,89,73,56,29.87,29.80,8,2,12,0.00
2013-6-22,78.5,70.3,64.7,62.0,59.8,57.0,85,70,47,29.89,29.78,8,2,12,0.00
2013-6-23,74.7,68.6,65.3,60.0,58.5,57.0,82,70,58,29.85,29.76,7,2,11,0.00
2013-6-24,76.8,69.7,64.1,61.0,59.0,58.0,85,70,52,29.91,29.79,8,2,11,0.00
2013-6-25,79.6,69.9,64.0,63.0,61.1,59.0,86,74,52,29.97,29.86,6,2,11,0.00
2013-6-26,86.8,73.1,63.0,65.0,62.2,59.0,89,70,45,29.94,29.86,10,2,10,0.00
2013-6-27,83.6,73.0,65.8,67.0,64.2,62.0,89,75,53,29.99,29.92,7,2,11,0.00
2013-6-28,91.6,75.2,64.9,67.0,63.7,61.0,91,70,40,29.96,29.82,6,2,10,0.00
2013-6-29,92.4,78.3,66.3,67.0,63.7,59.0,86,63,38,29.85,29.69,7,1,9,0.00
2013-6-30,85.4,74.0,68.3,69.0,65.9,64.0,88,77,53,29.78,29.67,12,2,16,0.00
2013-7-1,93.3,74.7,67.7,67.0,65.2,61.0,88,74,35,29.86,29.76,9,2,11,0.00
2013-7-2,78.3,71.6,67.1,67.0,64.9,64.0,91,80,63,29.97,29.84,9,2,13,0.00
2013-7-3,82.7,72.1,66.2,66.0,63.3,62.0,87,75,52,29.90,29.76,6,2,9,0.00
2013-7-4,81.4,71.6,65.4,64.0,62.3,61.0,87,73,52,29.80,29.71,7,2,10,0.00
2013-7-5,79.0,71.1,66.4,64.0,62.5,61.0,84,75,60,29.81,29.73,8,2,12,0.00
2013-7-6,79.7,71.6,67.4,65.0,62.9,61.0,83,75,57,29.80,29.71,6,2,10,0.00
2013-7-7,84.1,73.4,66.9,66.0,63.1,61.0,82,71,51,29.83,29.73,7,2,11,0.00
2013-7-8,88.5,72.4,62.6,66.0,61.0,56.0,88,70,35,29.89,29.82,8,1,11,0.00
2013-7-9,80.0,72.9,64.5,65.0,62.7,60.0,87,71,53,29.97,29.86,9,2,14,0.00
2013-7-10,78.7,72.0,67.9,67.0,65.0,63.0,86,79,66,29.94,29.86,7,1,11,0.00
2013-7-11,74.4,71.6,69.4,66.0,65.3,64.0,85,80,74,29.93,29.85,5,1,7,0.00
2013-7-12,84.3,73.1,65.4,67.0,64.1,61.0,86,74,51,29.89,29.81,9,2,12,0.00
2013-7-13,85.2,72.4,64.1,65.0,62.0,60.0,87,71,44,29.92,29.81,7,2,11,0.00
2013-7-14,85.4,73.7,64.7,65.0,62.7,58.0,87,70,40,29.90,29.78,7,2,11,0.00
2013-7-15,87.9,74.4,65.2,66.0,61.4,54.0,89,66,38,29.83,29.76,7,2,12,0.00
2013-7-16,86.7,72.2,59.4,63.0,57.7,52.0,88,63,32,29.94,29.82,9,2,12,0.00
2013-7-17,89.6,73.8,59.5,63.0,56.7,52.0,89,59,30,29.97,29.91,10,2,13,0.00
2013-7-18,83.9,71.7,61.4,62.0,59.7,57.0,87,67,47,29.95,29.82,7,2,11,0.00
2013-7-19,78.0,70.0,62.8,64.0,61.7,59.0,88,75,60,29.87,29.79,8,2,11,0.00
2013-7-20,74.3,69.0,66.8,64.0,62.4,61.0,84,80,70,29.86,29.76,5,1,10,0.00
2013-7-21,71.8,68.8,66.4,64.0,62.6,61.0,85,80,76,29.89,29.76,5,1,8,0.00
2013-7-22,83.2,73.9,66.4,65.0,63.2,62.0,86,71,50,29.94,29.87,8,2,10,0.00
2013-7-23,84.6,72.6,66.2,65.0,62.4,60.0,85,71,47,29.99,29.89,8,2,12,0.00
2013-7-24,81.7,71.3,65.1,64.0,61.6,60.0,85,73,54,29.94,29.86,8,2,12,0.00
2013-7-25,76.1,67.1,63.5,63.0,60.6,59.0,86,80,64,29.95,29.89,8,1,10,0.00
2013-7-26,85.2,74.9,67.6,65.0,62.5,59.0,77,66,49,30.04,29.93,8,2,10,0.07
2013-7-27,79.8,71.0,64.7,64.0,61.2,58.0,85,72,57,29.98,29.84,6,2,12,0.00
2013-7-28,76.0,68.4,63.8,62.0,60.1,59.0,87,75,60,29.89,29.84,6,2,13,0.00
2013-7-29,77.9,69.5,64.5,59.0,58.1,57.0,80,68,52,30.00,29.88,9,2,11,0.00
2013-7-30,79.6,68.7,60.3,61.0,58.3,56.0,88,71,50,30.09,30.00,9,2,14,0.00
2013-7-31,76.3,68.3,62.9,60.0,58.5,57.0,83,72,55,30.07,29.95,9,2,13,0.00
2013-8-1,78.1,68.9,62.6,60.0,58.5,57.0,83,71,53,30.00,29.87,7,2,9,0.00
2013-8-2,79.5,70.2,63.6,61.0,59.6,57.0,85,70,47,29.93,29.86,7,2,11,0.00
2013-8-3,79.3,70.2,64.4,62.0,60.3,59.0,82,71,56,29.96,29.88,8,2,10,0.00
2013-8-4,80.2,69.7,63.3,63.0,60.3,59.0,85,73,52,29.98,29.89,9,2,11,0.00
2013-8-5,82.4,68.7,62.0,61.0,59.2,57.0,87,73,46,29.97,29.88,9,2,11,0.00
2013-8-6,79.6,68.9,62.6,60.0,58.6,57.0,86,71,48,30.01,29.93,7,2,10,0.00
2013-8-7,79.1,68.4,61.2,60.0,58.8,57.0,87,73,52,30.05,29.93,8,2,11,0.00
2013-8-8,79.2,68.2,58.5,61.0,59.0,55.0,90,74,54,29.96,29.86,8,1,12,0.00
2013-8-9,76.4,67.6,60.9,60.0,58.7,57.0,89,74,57,29.94,29.88,8,1,12,0.00
2013-8-10,75.9,68.3,61.5,61.0,58.7,57.0,87,73,57,30.00,29.91,8,2,12,0.00
2013-8-11,80.9,68.9,62.4,61.0,59.4,58.0,87,73,47,29.96,29.85,9,2,11,0.00
2013-8-12,80.0,68.9,61.4,63.0,60.1,57.0,88,74,55,29.94,29.85,9,2,13,0.00
2013-8-13,81.7,69.9,61.4,64.0,60.9,57.0,88,74,52,29.95,29.83,7,2,10,0.00
2013-8-14,77.8,68.6,63.5,64.0,61.7,60.0,88,79,63,29.89,29.79,9,2,11,0.00
2013-8-15,79.0,70.4,65.5,65.0,62.6,61.0,86,77,60,29.91,29.84,7,2,11,0.00
2013-8-16,86.2,73.0,64.4,66.0,62.7,60.0,90,72,43,29.92,29.85,7,2,10,0.00
2013-8-17,84.7,72.2,63.5,65.0,61.5,60.0,89,71,46,29.91,29.77,7,1,10,0.00
2013-8-18,76.5,68.9,64.0,64.0,61.8,60.0,89,78,64,29.88,29.79,8,2,12,0.00
2013-8-19,78.8,70.3,65.8,64.0,62.5,61.0,85,77,59,29.92,29.81,7,2,11,0.00
2013-8-20,84.6,71.5,65.0,63.0,61.2,60.0,86,72,45,29.90,29.80,9,2,10,0.00
2013-8-21,85.6,72.6,61.8,63.0,59.5,55.0,88,66,43,29.89,29.79,8,2,12,0.00
2013-8-22,89.3,75.7,62.7,63.0,57.6,51.0,86,57,28,29.89,29.76,9,2,15,0.00
2013-8-23,89.9,73.7,62.2,63.0,58.8,50.0,88,63,26,29.83,29.69,8,2,12,0.00
2013-8-24,84.2,69.4,60.1,64.0,60.1,57.0,90,74,47,29.84,29.72,7,2,11,0.00
2013-8-25,87.5,70.8,61.7,63.0,60.1,57.0,91,72,36,29.88,29.80,6,2,8,0.00
2013-8-26,93.5,77.7,64.9,63.0,58.9,52.0,86,57,25,29.87,29.77,9,2,12,0.00
2013-8-27,90.8,75.7,68.4,64.0,60.2,54.0,81,60,29,29.81,29.72,8,2,10,0.00
2013-8-28,93.2,78.6,66.9,64.0,58.8,45.0,83,54,22,29.85,29.73,7,2,13,0.00
2013-8-29,99.1,81.8,68.0,63.0,58.4,51.0,79,49,25,29.89,29.82,7,1,11,0.00
2013-8-30,90.8,81.6,73.9,69.0,64.6,60.0,73,57,41,29.93,29.85,7,2,12,0.00
2013-8-31,94.0,82.9,74.7,72.0,67.7,63.0,73,61,45,29.92,29.83,8,2,13,0.00
2013-9-1,91.1,80.0,72.9,71.0,67.4,63.0,81,66,50,29.89,29.80,11,2,14,0.00
2013-9-2,90.9,78.0,69.5,70.0,67.4,66.0,89,71,48,29.88,29.75,7,2,12,0.00
2013-9-3,96.0,80.9,71.3,69.0,66.3,62.0,84,63,36,29.86,29.77,10,1,14,0.00
2013-9-4,96.9,81.8,70.0,68.0,63.0,58.0,83,56,30,29.86,29.79,8,2,13,0.00
2013-9-5,97.8,80.8,68.4,67.0,62.2,57.0,83,56,29,29.84,29.76,10,2,12,0.00
2013-9-6,98.5,81.0,67.6,67.0,61.2,55.0,86,55,23,29.82,29.73,8,2,11,0.00
2013-9-7,96.3,80.3,69.4,67.0,62.1,54.0,83,57,24,29.81,29.75,11,1,12,0.00
2013-9-8,86.9,74.0,65.4,64.0,61.6,58.0,85,67,43,29.81,29.71,7,1,10,0.00
2013-9-9,82.0,71.3,64.7,63.0,60.7,59.0,86,71,47,29.78,29.70,7,2,9,0.00
2013-9-10,79.2,69.7,62.7,60.0,59.1,58.0,86,70,51,29.91,29.78,9,1,12,0.00
2013-9-11,78.9,68.8,61.3,62.0,60.0,57.0,88,75,54,29.97,29.88,7,1,10,0.00
2013-9-12,88.5,72.1,60.9,64.0,60.6,57.0,91,70,39,29.90,29.78,7,1,12,0.00
2013-9-13,87.0,72.7,61.4,64.0,61.4,55.0,91,70,37,29.80,29.62,5,1,8,0.00
2013-9-14,86.9,72.4,64.1,66.0,62.5,59.0,91,73,43,29.69,29.59,6,1,9,0.00
2013-9-15,89.8,73.8,65.1,67.0,63.0,60.0,91,71,42,29.73,29.66,7,1,11,0.00
2013-9-16,89.8,74.7,63.7,65.0,60.9,57.0,90,66,37,29.78,29.69,12,2,13,0.00
2013-9-17,74.9,68.1,64.2,63.0,61.7,60.0,90,80,64,29.79,29.70,7,2,9,0.00
2013-9-18,76.9,69.9,64.3,62.0,60.0,59.0,87,72,56,29.78,29.71,8,2,13,0.00
2013-9-19,77.8,68.7,61.3,63.0,61.3,58.0,91,78,59,29.80,29.73,8,2,10,0.00
2013-9-20,73.2,69.5,67.5,63.0,61.8,59.0,82,76,68,29.86,29.78,5,1,8,0.00
2013-9-21,76.8,70.3,64.3,62.0,58.6,56.0,85,67,52,29.88,29.77,10,2,13,0.00
2013-9-22,78.3,69.1,59.1,61.0,55.7,44.0,90,66,30,29.81,29.75,9,2,11,0.00
2013-9-23,94.7,73.9,56.6,60.0,50.2,35.0,87,53,12,29.85,29.76,8,1,11,0.00
2013-9-24,89.7,73.6,58.7,61.0,53.2,35.0,87,56,17,29.89,29.79,6,1,13,0.00
2013-9-25,75.4,69.9,64.9,63.0,59.4,52.0,85,70,58,29.82,29.67,12,2,14,0.00
2013-9-26,77.4,68.3,59.7,58.0,52.3,40.0,82,59,28,29.84,29.69,9,2,19,0.00
2013-9-27,86.8,68.8,53.2,53.0,43.1,28.0,86,48,12,29.95,29.84,13,2,16,0.00
2013-9-28,91.2,70.6,51.4,50.0,39.9,11.0,80,44,5,30.00,29.91,8,1,12,0.00
2013-9-29,85.8,69.8,53.0,57.0,48.6,39.0,79,52,20,30.03,29.92,7,1,12,0.00
2013-9-30,80.9,69.5,57.9,63.0,58.8,54.0,90,71,44,29.95,29.81,6,1,9,0.00
2013-10-1,77.6,69.0,60.5,63.0,60.5,57.0,89,75,52,29.90,29.83,7,2,10,0.00
2013-10-2,75.7,69.1,65.2,61.0,59.2,58.0,80,71,58,29.94,29.84,8,2,10,0.00
2013-10-3,75.7,68.3,62.6,61.0,59.3,58.0,87,74,56,29.89,29.79,9,1,12,0.00
2013-10-4,89.1,74.6,59.6,62.0,42.3,-25.0,89,48,1,29.98,29.84,11,2,14,0.00
2013-10-5,94.1,80.1,63.2,43.0,8.8,-99.9,47,12,1,30.07,29.97,11,3,20,0.00
2013-10-6,95.4,73.1,52.8,50.0,21.0,-99.9,65,32,1,30.04,29.91,8,2,14,0.00
2013-10-7,86.1,68.8,57.1,61.0,52.1,32.0,85,59,14,29.94,29.85,6,1,10,0.00
2013-10-8,73.8,65.4,56.8,59.0,56.2,54.0,90,73,54,29.89,29.79,7,1,10,0.00
2013-10-9,68.8,63.1,56.1,54.0,50.5,44.0,84,64,47,29.80,29.68,10,3,18,0.33
2013-10-10,71.1,60.4,50.3,53.0,50.3,47.0,91,72,43,29.98,29.77,8,1,11,0.01
2013-10-11,75.8,62.6,50.2,57.0,52.8,47.0,90,73,45,30.01,29.91,12,1,12,0.00
2013-10-12,76.5,63.5,52.5,60.0,55.9,49.0,91,78,49,29.95,29.85,8,1,10,0.01
2013-10-13,71.2,64.1,57.8,58.0,56.0,54.0,89,76,57,29.99,29.90,8,1,11,0.00
2013-10-14,85.6,66.5,53.0,58.0,53.1,43.0,91,67,23,29.99,29.85,8,1,11,0.00
2013-10-15,89.2,70.1,53.8,57.0,43.3,23.0,90,49,9,29.93,29.82,5,1,11,0.00
2013-10-16,88.3,70.3,53.4,48.0,34.8,4.0,79,39,4,30.02,29.93,7,1,9,0.00
2013-10-17,81.7,66.3,50.6,58.0,46.1,31.0,83,53,16,30.00,29.88,6,1,10,0.00
2013-10-18,83.9,66.6,52.2,57.0,51.7,40.0,89,64,24,29.98,29.88,6,1,8,0.00
2013-10-19,82.4,67.5,55.9,61.0,55.5,45.0,91,70,27,29.98,29.91,8,1,12,0.01
2013-10-20,73.5,65.0,57.2,60.0,58.0,54.0,91,79,58,29.95,29.86,7,1,11,0.00
2013-10-21,75.3,64.4,57.4,58.0,56.6,54.0,90,77,52,29.95,29.86,5,1,8,0.00
2013-10-22,76.1,63.6,54.4,60.0,56.6,52.0,91,79,56,29.97,29.86,5,1,10,0.01
2013-10-23,70.3,64.5,57.0,58.0,56.3,53.0,89,75,62,29.94,29.87,8,1,10,0.00
2013-10-24,71.3,64.7,57.0,57.0,55.5,53.0,87,73,62,30.02,29.92,6,1,10,0.00
2013-10-25,73.0,64.4,55.7,59.0,56.9,52.0,89,77,59,30.09,29.97,7,1,8,0.00
2013-10-26,76.4,63.3,55.8,62.0,57.7,53.0,92,83,59,30.06,29.93,6,1,7,0.00
2013-10-27,71.0,64.2,56.8,61.0,58.4,54.0,91,82,69,29.94,29.79,8,1,10,0.01
2013-10-28,68.7,62.9,56.4,57.0,52.4,49.0,85,69,53,29.90,29.79,15,3,16,0.01
2013-10-29,68.0,60.4,53.1,54.0,51.2,50.0,91,73,53,29.97,29.89,10,1,13,0.02
2013-10-30,72.6,59.7,48.5,54.0,49.7,45.0,91,72,38,30.04,29.95,7,1,9,0.00
2013-10-31,81.9,62.5,48.4,54.0,46.5,29.0,90,62,15,30.05,29.94,7,1,12,0.01
2013-11-1,89.7,66.5,48.4,49.0,42.1,23.0,87,51,9,30.07,29.89,4,0,8,0.00
2013-11-2,81.2,64.3,50.1,60.0,50.4,35.0,88,66,19,29.95,29.85,9,1,12,0.00
2013-11-3,69.8,64.3,60.6,59.0,55.7,54.0,89,74,59,29.89,29.79,7,1,12,0.00
2013-11-4,69.1,63.2,55.1,56.0,53.2,51.0,87,70,59,29.91,29.76,8,1,12,0.00
2013-11-5,78.6,62.1,48.3,55.0,41.6,15.0,91,57,9,30.10,29.91,6,1,8,0.00
2013-11-6,83.4,64.1,46.9,44.0,33.1,5.0,74,40,5,30.16,30.05,8,1,9,0.00
2013-11-7,87.8,67.1,50.8,46.0,31.3,-3.0,70,34,3,30.07,29.95,4,1,9,0.00
2013-11-8,74.7,61.7,48.2,59.0,51.4,43.0,91,71,40,30.00,29.90,5,1,8,0.00
2013-11-9,76.5,62.5,54.6,58.0,52.7,35.0,91,75,22,30.04,29.96,5,1,8,0.01
2013-11-10,83.6,61.6,50.7,57.0,49.7,32.0,92,71,16,30.09,29.99,10,1,10,0.01
2013-11-11,81.0,61.5,46.2,57.0,49.0,41.0,90,68,25,30.09,29.98,8,1,10,0.00
2013-11-12,78.0,62.5,52.5,54.0,50.9,46.0,90,69,32,30.13,30.02,3,0,9,0.00
2013-11-13,92.7,68.5,50.9,51.0,45.3,26.0,86,53,9,30.01,29.84,6,1,12,0.00
2013-11-14,90.2,69.4,54.6,61.0,45.2,26.0,88,49,10,29.88,29.73,4,1,8,0.00
2013-11-15,70.2,64.3,59.9,60.0,56.9,54.0,88,77,62,29.73,29.64,10,2,12,0.00
2013-11-16,67.8,61.7,53.6,55.0,51.5,48.0,88,70,49,29.91,29.72,9,1,10,0.00
2013-11-17,69.9,60.3,51.4,54.0,51.5,48.0,89,74,54,30.06,29.91,7,1,11,0.00
2013-11-18,70.0,62.8,52.8,57.0,54.3,49.0,90,74,56,30.12,30.01,7,2,10,0.00
2013-11-19,66.7,62.0,57.5,55.0,53.4,52.0,84,74,60,30.05,29.92,6,1,8,0.00
2013-11-20,67.3,61.7,55.6,58.0,55.2,52.0,90,80,64,29.94,29.85,4,1,7,0.16
2013-11-21,66.4,61.3,55.2,60.0,56.4,52.0,92,84,71,29.85,29.79,7,2,10,0.26
2013-11-22,65.0,58.1,53.2,53.0,46.0,39.0,91,66,42,29.92,29.79,7,1,13,0.02
2013-11-23,69.5,58.1,49.1,49.0,44.9,39.0,84,64,35,30.05,29.91,6,1,10,0.00
2013-11-24,69.8,57.0,45.9,49.0,44.8,39.0,85,66,33,30.16,30.05,7,1,7,0.00
2013-11-25,74.4,57.8,44.6,52.0,44.7,41.0,89,66,31,30.20,30.11,7,1,10,0.00
2013-11-26,78.6,60.2,46.1,52.0,45.2,35.0,87,62,22,30.15,30.00,5,0,8,0.00
2013-11-27,75.1,59.9,49.0,49.0,44.3,37.0,84,61,26,29.99,29.84,5,1,9,0.00
2013-11-28,70.2,58.8,47.4,56.0,49.8,43.0,89,73,44,30.02,29.86,7,1,10,0.00
2013-11-29,66.1,58.9,53.7,57.0,53.6,51.0,90,83,66,30.14,30.02,5,0,7,0.44
2013-11-30,76.9,61.2,51.4,56.0,50.1,45.0,92,71,33,30.15,30.03,6,1,9,0.00
2013-12-1,83.5,63.2,49.0,51.0,43.8,31.0,89,57,15,30.17,30.04,6,1,7,0.00
2013-12-2,75.6,58.4,47.0,53.0,44.7,36.0,87,65,25,30.08,29.88,4,0,7,0.00
2013-12-3,66.1,57.7,47.9,55.0,49.7,44.0,89,75,59,29.87,29.72,9,2,11,0.00
2013-12-4,63.9,54.8,45.5,47.0,36.3,24.0,74,52,28,29.93,29.75,10,2,15,0.00
2013-12-5,62.9,51.2,40.4,41.0,37.9,33.0,86,63,34,30.07,29.92,6,1,9,0.00
2013-12-6,61.7,50.9,40.6,44.0,40.3,37.0,86,69,48,30.14,30.06,5,1,11,0.00
2013-12-7,59.5,49.9,42.3,52.0,41.0,30.0,88,73,48,30.09,29.96,12,2,20,0.12
2013-12-8,58.1,46.4,35.8,40.0,35.5,30.0,86,68,41,30.17,30.07,4,0,8,0.00
2013-12-9,64.4,50.3,36.1,37.0,15.3,-15.0,89,41,4,30.26,30.16,7,1,16,0.00
2013-12-10,70.1,53.6,39.5,37.0,16.2,-9.0,56,28,4,30.23,30.05,9,2,13,0.00
2013-12-11,75.1,55.1,39.9,46.0,29.5,7.0,83,44,7,30.12,30.06,5,1,9,0.00
2013-12-12,66.8,54.1,41.6,52.0,44.8,34.0,89,72,48,30.18,30.09,7,1,8,0.00
2013-12-13,66.6,52.9,41.0,51.0,45.6,38.0,92,78,41,30.20,30.09,4,0,7,0.01
2013-12-14,76.9,56.8,42.2,45.0,37.0,18.0,90,57,11,30.25,30.14,7,1,8,0.01
2013-12-15,82.6,61.7,42.7,37.0,28.0,-1.0,68,37,4,30.20,30.03,5,1,10,0.00
2013-12-16,85.9,67.0,54.5,49.0,34.4,23.0,60,32,10,30.09,30.00,6,1,9,0.00
2013-12-17,77.6,63.2,49.5,54.0,48.5,41.0,78,61,28,30.09,29.96,4,0,7,0.00
2013-12-18,70.3,61.0,54.4,57.0,53.4,50.0,87,77,52,29.96,29.83,5,1,9,0.00
2013-12-19,59.5,55.3,46.8,51.0,47.3,44.0,88,75,60,29.83,29.68,5,1,10,0.21
2013-12-20,63.6,51.6,40.9,52.0,45.9,38.0,92,82,63,29.91,29.73,6,1,8,0.00
2013-12-21,63.3,52.9,44.8,52.0,46.9,42.0,91,81,64,30.05,29.89,6,1,9,0.01
2013-12-22,70.0,54.0,42.1,52.0,46.8,40.0,92,78,42,30.22,30.05,6,1,9,0.00
2013-12-23,78.7,58.9,44.5,50.0,42.8,32.0,91,62,19,30.28,30.13,6,1,11,0.01
2013-12-24,79.9,60.6,46.3,51.0,42.3,34.0,76,55,21,30.16,30.04,4,0,6,0.00
2013-12-25,83.7,63.9,46.3,44.0,26.5,-6.0,75,35,3,30.16,30.06,6,1,13,0.00
2013-12-26,84.5,62.8,46.7,33.0,13.9,-99.9,56,25,1,30.13,30.02,9,1,14,0.00
2013-12-27,85.1,60.9,44.0,38.0,20.3,-99.9,58,32,1,30.11,29.99,5,1,9,0.00
2013-12-28,69.6,57.1,48.6,56.0,45.1,35.0,90,67,30,30.00,29.89,7,1,11,0.00
2013-12-29,79.8,58.9,47.6,51.0,35.3,2.0,92,55,5,30.11,29.97,3,1,7,0.01
2013-12-30,75.8,58.4,39.4,41.0,33.0,10.0,79,46,8,30.23,30.11,4,0,6,0.00
2013-12-31,70.3,53.5,39.9,51.0,40.9,28.0,87,67,21,30.17,30.05,3,0,6,0.00
2014-1-1,70.1,55.5,44.2,53.0,46.3,38.0,92,74,33,30.11,30.00,3,0,6,0.01
2014-1-2,79.0,58.0,43.6,54.0,46.8,32.0,92,71,18,30.07,29.95,4,0,7,0.00